Weather History for Cairo, Egypt

Change the Weather History Date:

Friday, May 17, 2013

  Actual Average Record
Temperature  
Mean Temperature 79 °F -  
Max Temperature 90 °F 89 °F 102 °F (2000)
Min Temperature 68 °F 67 °F 60 °F (2001)
Cooling Degree Days 14    
Growing Degree Days 29 (Base 50)    
Moisture  
Dew Point 50 °F    
Average Humidity 41    
Maximum Humidity 73    
Minimum Humidity 11    
Precipitation  
Precipitation 0.00 in 0.00 in - ()
Sea Level Pressure  
Sea Level Pressure 30.00 in    
Wind  
Wind Speed 13 mph ()    
Max Wind Speed 20 mph    
Max Gust Speed -    
Visibility 6.0 miles    
Events      
Averages and records for this station are not official NWS values.
T = Trace of Precipitation, MM = Missing Value Source: Averaged Metar Reports

Daily Weather History Graph

Daily Weather History Graph

Search for Another Location

Airport:

Trip Planner

Search our weather history database for the weather conditions in past years. The results will help you decide how hot, cold, wet, or windy it might be!

Date:

Astronomy

May. 17, 2013 Rise Set
Actual Time 4:59 AM EET 6:42 PM EET
Civil Twilight 4:33 AM EET 7:08 PM EET
Nautical Twilight 4:01 AM EET 7:40 PM EET
Astronomical Twilight 3:28 AM EET 8:13 PM EET
Moon 11:01 AM EET (5/17) No Moon Set
Length of Visible Light 14h 35m
Length of Day
13h 42m
Waxing Crescent, 42% of the Moon is Illuminated
May 17
Waxing Crescent
May 18
First Quarter
May 25
Full
May 31
Last Quarter
Jun 8
New

Hourly Weather History & Observations

Time (EET) Temp. Dew Point Humidity Pressure Visibility Wind Dir Wind Speed Gust Speed Precip Events Conditions
12:00 AM 71.6 °F 59.0 °F 64% 30.01 in - NE 15.0 mph - N/A   Clear
12:30 AM 71.6 °F 59.0 °F 64% 30.01 in - NE 15.0 mph - N/A   Clear
1:00 AM 71.6 °F 60.8 °F 69% 30.01 in - NE 13.8 mph - N/A   Clear
1:30 AM 69.8 °F 57.2 °F 64% 29.98 in - NE 13.8 mph - N/A   Clear
2:00 AM 70 °F 58 °F 58% 29.98 in 6 mi ENE 15.0 mph - -  
2:00 AM 69.8 °F 59.0 °F 68% 29.98 in - ENE 15.0 mph - N/A   Clear
2:30 AM 69.8 °F 59.0 °F 68% 29.98 in - ENE 15.0 mph - N/A   Clear
3:00 AM 69.8 °F 59.0 °F 68% 29.98 in - NE 10.4 mph - N/A   Clear
3:30 AM 69.8 °F 59.0 °F 68% 29.98 in - ENE 10.4 mph - N/A   Clear
4:00 AM 68.0 °F 57.2 °F 68% 29.98 in - ENE 8.1 mph - N/A   Clear
4:30 AM 68.0 °F 59.0 °F 73% 29.98 in - NE 9.2 mph - N/A   Clear
5:00 AM 68.0 °F 59.0 °F 73% 29.98 in - NE 9.2 mph - N/A   Clear
5:30 AM 68.0 °F 59.0 °F 73% 29.98 in - ENE 11.5 mph - N/A   Clear
6:00 AM 68.0 °F 59.0 °F 73% 30.01 in - ENE 10.4 mph - N/A   Clear
6:30 AM 68.0 °F 57.2 °F 68% 30.01 in - ENE 10.4 mph - N/A   Clear
7:00 AM 71.6 °F 55.4 °F 57% 30.01 in - ENE 11.5 mph - N/A   Clear
7:30 AM 73.4 °F 53.6 °F 50% 30.01 in - ENE 15.0 mph - N/A   Clear
8:00 AM 74 °F 51 °F 34% 30.01 in 6 mi NNE 17.3 mph - -  
8:00 AM 75.2 °F 51.8 °F 44% 30.01 in - ENE 17.3 mph - N/A   Clear
8:30 AM 77.0 °F 48.2 °F 36% 30.01 in - NE 17.3 mph - N/A   Clear
9:00 AM 78.8 °F 48.2 °F 34% 30.04 in - NE 16.1 mph - N/A   Clear
9:30 AM 78.8 °F 46.4 °F 32% 30.04 in - NE 16.1 mph - N/A   Clear
10:00 AM 80.6 °F 46.4 °F 30% 30.01 in - NE 16.1 mph - N/A   Clear
10:30 AM 82.4 °F 44.6 °F 26% 30.01 in - NE 16.1 mph - N/A   Clear
11:00 AM 82.4 °F 44.6 °F 26% 30.04 in - NE 15.0 mph - N/A   Clear
11:30 AM 84.2 °F 44.6 °F 25% 30.01 in - NE 15.0 mph - N/A   Clear
12:00 PM 84.2 °F 44.6 °F 25% 30.01 in - NE 15.0 mph - N/A   Clear
12:30 PM 86.0 °F 44.6 °F 23% 30.01 in - NE 15.0 mph - N/A   Clear
1:00 PM 87.8 °F 41.0 °F 19% 29.98 in - NE 17.3 mph - N/A   Clear
1:30 PM 87.8 °F 41.0 °F 19% 29.98 in - NE 17.3 mph - N/A   Clear
2:00 PM 89 °F 42 °F 11% 29.98 in 6 mi NE 13.8 mph - -  
2:00 PM 89.6 °F 41.0 °F 18% 29.98 in - NE 13.8 mph - N/A   Clear
2:30 PM 89.6 °F 41.0 °F 18% 29.98 in - NE 13.8 mph - N/A   Clear
3:00 PM 89.6 °F 41.0 °F 18% 29.98 in - NE 13.8 mph - N/A   Clear
3:30 PM 89.6 °F 42.8 °F 20% 29.98 in - North 13.8 mph - N/A   Clear
4:00 PM 89.6 °F 42.8 °F 20% 29.98 in - NNE 17.3 mph - N/A   Clear
4:30 PM 89.6 °F 42.8 °F 20% 29.98 in - NNE 17.3 mph - N/A   Clear
5:00 PM 89.6 °F 41.0 °F 18% 29.98 in - NNE 13.8 mph - N/A   Clear
5:30 PM 89.6 °F 42.8 °F 20% 29.95 in - NNE 15.0 mph - N/A   Clear
6:00 PM 87.8 °F 41.0 °F 19% 29.98 in - NNE 15.0 mph - N/A   Clear
6:30 PM 87.8 °F 42.8 °F 21% 29.98 in - NNE 16.1 mph - N/A   Clear
7:00 PM 86.0 °F 48.2 °F 27% 30.01 in - NNE 16.1 mph - N/A   Clear
7:30 PM 82.4 °F 50.0 °F 32% 30.01 in - NNE 16.1 mph - N/A   Clear
8:00 PM 82 °F 49 °F 21% 30.01 in 6 mi NNE 17.3 mph - -  
8:00 PM 82.4 °F 48.2 °F 30% 30.01 in - NNE 17.3 mph - N/A   Clear
8:30 PM 80.6 °F 48.2 °F 32% 30.01 in - NNE 17.3 mph - N/A   Clear
9:00 PM 78.8 °F 50.0 °F 36% 30.06 in - NNE 18.4 mph - N/A   Clear
9:30 PM 77.0 °F 50.0 °F 39% 30.06 in - NNE 18.4 mph - N/A   Clear
10:00 PM 75.2 °F 53.6 °F 47% 30.06 in - NE 19.6 mph - N/A   Clear
10:30 PM 75.2 °F 53.6 °F 47% 30.04 in - ENE 17.3 mph - N/A   Clear
11:00 PM 75.2 °F 51.8 °F 44% 30.04 in - ENE 16.1 mph - N/A   Clear
11:30 PM 73.4 °F 53.6 °F 50% 30.01 in - ENE 17.3 mph - N/A   Clear